User: anonymous   Login
Location: Ash Swamp
(41.5170°N, 74.6157°W)
Time: 18:44:27
(UTC+00:00)
Language:

Cosmos 1833 Rocket - Orbit

View from above orbital plane
View from above orbital plane
View from above satellite
View from above satellite

Ground track
Ground track

The orbit data is extracted from the following two-line orbital elements,

1 17590U 87027B   20262.46146938 -.00000127  00000-0 -39600-4 0  9993
2 17590  71.0036 165.5393 0007351 284.1510  75.8796 14.16789451732561
Epoch (UTC): 18 September 2020 11:04:30
Eccentricity: 0.0007351
inclination: 71.0036°
perigee height: 831 km
apogee height: 841 km
right ascension of ascending node: 165.5393°
argument of perigee: 284.1510°
revolutions per day: 14.16789451
mean anomaly at epoch: 75.8796°
orbit number at epoch: 73256

The dashed part of the orbit path shows where the satellite is in the earth's shadow,  

DLR